Location: *
(28.2408°N, 53.4600°E)
Time: 19:07:26
(UTC+00:00)

Cosmos 2227 Rocket - Pass Details

Date: 22 September 2019
Orbit: 837 x 847 km, 71.0° (Epoch: 15 October)

Event Time Altitude Azimuth Distance (km) Brightness Sun altitude
Rises 16:16:45 0° 226° (SW) 3,379 5.7 -25.5°
Reaches altitude 10° 16:19:32 10° 238° (WSW) 2,449 5.1 -26.1°
Maximum altitude 16:24:15 27° 296° (WNW) 1,558 4.2 -27.1°
Drops below altitude 10° 16:28:59 10° 353° (N) 2,463 4.9 -28.1°
Sets 16:31:49 0° 5° (N) 3,403 5.5 -28.7°
